Location: Beekmeers
(50.8953°N, 3.6968°E)
Time: 13:42:39
(UTC+00:00)

SENTINEL 1B - Pass Details

Date: 13 October 2025
Orbit: 561 x 585 km, 98.1° (Epoch: 16 November)

Event Time Altitude Azimuth Distance (km) Brightness Sun altitude
Exits shadow 20:58:35 14° 304° (NW) 1,672 8.2 -36.9°
Drops below altitude 10° 20:59:34 10° 315° (NW) 1,925 8.6 -37.0°
Sets 21:02:16 0° 333° (NNW) 2,830 9.6 -37.3°
